[[{"header":{"parameterUnit":"m.s-1","parameterCategory":1,"la1":30.2991,"la2":30.254,"lo1":-89.0895,"lo2":-89.0444,"dy":0.0017,"dx":0.0017,"nx":28,"ny":28,"refTime":"2023-09-04T21:00:00:Z","depth":0,"parameterNumber":2,"parameterNumberName":"U-component_of_WINDS"},"data":[0,0,0,0,0,0,0,0,0,0,0,0,0,0,0,0,0,0,0,0,0,0,0,0,0,0,0,0,0,0,0,0,0,0,0,0,0,0,0,0,0,0,0,0,0,0,0,0,0,0,0,0,0,0,0,0,0,0,-2.3643,-2.3643,0,-2.3679,-2.3679,-2.368,-2.3655,-2.3654,-2.3653,-2.3652,-2.3687,-2.3688,-2.369,0,0,0,0,0,0,0,0,0,0,0,0,0,-2.355,-2.3552,-2.3643,-2.3643,-2.3644,-2.3679,-2.3679,-2.368,-2.3655,-2.3654,-2.3653,-2.3651,-2.3686,-2.3688,-2.3691,0,0,0,0,0,0,0,0,0,0,0,0,0,-2.3589,-2.3552,-2.3643,-2.3636,-2.3635,-2.3679,-2.3679,-2.368,-2.3656,-2.3654,-2.3652,-2.3651,-2.3685,-2.3688,-2.3691,-2.3743,0,0,-2.37,-2.3701,0,0,0,0,0,0,0,0,-2.3586,-2.3592,-2.3636,-2.3636,-2.3636,-2.3661,-2.3659,-2.3701,-2.3656,-2.3648,-2.3652,-2.365,-2.3679,-2.3683,-2.3693,-2.3744,-2.3746,-2.37,-2.3702,-2.3703,-2.3704,0,0,0,0,0,0,0,-2.3584,-2.359,-2.3657,-2.3637,-2.3637,-2.363,-2.3634,-2.3667,-2.3672,-2.3648,-2.3647,-2.3651,-2.3679,-2.369,-2.3694,-2.3746,-2.37,-2.3703,-2.3704,-2.3706,-2.384,-2.3841,0,0,0,0,0,0,-2.3582,-2.3588,-2.3656,-2.3658,-2.3607,-2.3633,-2.3637,-2.3655,-2.3672,-2.3673,-2.3653,-2.365,-2.3686,-2.369,-2.3695,-2.3754,-2.3703,-2.3706,-2.3708,-2.3838,-2.384,-2.3842,0,0,0,0,0,0,-2.358,-2.3588,-2.3654,-2.3623,-2.3631,-2.3636,-2.3656,-2.3656,-2.3667,-2.3675,-2.3676,-2.3664,-2.3685,-2.369,-2.373,-2.3755,-2.3707,-2.371,-2.3836,-2.3839,-2.3841,-2.3875,0,0,0,0,0,0,-2.3578,-2.3588,-2.3608,-2.3623,-2.3632,-2.369,-2.3658,-2.3658,-2.3673,-2.367,-2.3686,-2.3687,-2.3684,-2.3726,-2.3733,-2.3758,-2.3712,-2.3833,-2.3837,-2.384,-2.3872,-2.3879,-2.3885,0,0,0,0,0,-2.3574,-2.3616,-2.3609,-2.3617,-2.3658,-2.3692,-2.3697,-2.3694,-2.3675,-2.3695,-2.37,-2.3686,-2.3752,-2.3731,-2.3738,-2.3765,-2.3832,-2.3836,-2.384,-2.3869,-2.3877,-2.3884,0,0,0,0,0,0,-2.3603,-2.3618,-2.361,-2.3659,-2.3674,-2.3688,-2.3712,-2.3703,-2.3724,-2.372,-2.3714,-2.3718,-2.376,-2.3767,-2.3742,-2.3815,-2.3789,-2.3795,-2.3808,-2.3816,-2.3822,-2.3819,-2.3715,0,0,0,0,0,-2.3615,-2.3642,-2.3654,-2.3695,-2.3703,-2.3707,-2.3721,-2.3718,-2.3733,-2.3739,-2.3747,-2.3763,-2.3786,-2.3802,-2.3825,-2.3874,-2.3875,-2.3896,-2.3902,-2.3907,-2.3911,-2.3936,-2.3944,-2.3855,-2.3855,-2.3855,0,0,-2.3639,-2.3651,-2.3669,-2.3701,-2.3713,-2.3739,-2.3712,-2.3742,-2.3762,-2.3744,-2.3781,-2.3788,-2.3805,-2.3849,-2.3869,-2.3856,-2.3937,-2.3912,-2.3916,-2.3918,-2.3941,-2.3949,-2.3956,-2.3858,-2.3857,-2.3857,0,0,-2.3698,-2.371,-2.3745,-2.3758,-2.3776,-2.3778,-2.3786,-2.3801,-2.3805,-2.3843,-2.383,-2.3853,-2.3895,-2.3906,-2.3918,-2.3981,-2.3968,-2.3989,-2.4021,-2.4044,-2.4051,-2.4057,-2.4077,-2.4085,-2.3993,-2.3993,-2.3993,0,-2.3725,-2.3766,-2.3764,-2.3795,-2.3809,-2.3795,-2.3829,-2.3841,-2.3865,-2.3875,-2.3861,-2.3912,-2.3922,-2.3968,-2.3983,-2.3994,-2.4002,-2.3985,-2.4051,-2.4057,-2.4062,-2.4081,-2.4089,-2.3995,-2.3995,-2.3995,-2.3995,0,-2.3799,-2.3827,-2.3853,-2.3877,-2.3894,-2.3927,-2.3928,-2.3946,-2.3941,-2.3944,-2.3982,-2.3995,-2.4018,-2.403,-2.4025,-2.4075,-2.4066,-2.4052,-2.4025,-2.4073,-2.4091,-2.4098,-2.3999,-2.3998,-2.3997,-2.3997,0,0,-2.3874,-2.3897,-2.3906,-2.3916,-2.3935,-2.3957,-2.3988,-2.4012,-2.4026,-2.4044,-2.4069,-2.4105,-2.4092,-2.4105,-2.4102,-2.4123,-2.4169,-2.4106,-2.4106,-2.4115,-2.4221,-2.423,-2.4238,-2.4162,-2.4164,-2.4165,-2.4219,0,-2.3931,-2.3986,-2.3985,-2.4036,-2.4061,-2.4048,-2.4075,-2.4089,-2.4094,-2.4115,-2.412,-2.4144,-2.4126,-2.4133,-2.4154,-2.4159,-2.419,-2.4156,-2.4183,-2.4184,-2.4176,-2.4248,-2.4257,-2.4308,-2.4226,-2.4227,-2.4228,0,-2.4005,-2.4025,-2.4078,-2.4092,-2.4103,-2.4127,-2.4148,-2.417,-2.4185,-2.4187,-2.4201,-2.4195,-2.4226,-2.42,-2.4242,-2.4218,-2.423,-2.4234,-2.4236,-2.4236,-2.4207,-2.4247,-2.4324,-2.4331,-2.424,-2.4239,-2.4238,0,-2.4051,-2.4092,-2.4128,-2.4138,-2.4156,-2.4173,-2.4181,-2.4195,-2.4209,-2.4228,-2.4237,-2.4259,-2.4271,-2.4288,-2.4287,-2.4269,-2.4328,-2.4303,-2.4328,-2.4328,-2.4339,-2.4337,-2.4416,-2.4351,-2.4351,-2.4351,-2.4351,0,-2.4113,-2.4146,-2.4149,-2.4171,-2.4206,-2.4205,-2.424,-2.4246,-2.4259,-2.4281,-2.4273,-2.4294,-2.4293,-2.4314,-2.4314,-2.4347,-2.4353,-2.4353,-2.4352,-2.4353,-2.4352,-2.4358,-2.4353,-2.4353,-2.4352,-2.4352,-2.4352,0,-2.417,-2.4174,-2.4212,-2.4227,-2.4231,-2.4256,-2.4268,-2.4288,-2.4292,-2.4321,-2.4327,-2.4333,-2.4357,-2.4359,-2.4387,-2.4387,-2.4426,-2.4423,-2.4421,-2.4419,-2.4443,-2.444,-2.4526,-2.4536,-2.4467,-2.4468,-2.4468,0,-2.4208,-2.4233,-2.425,-2.4264,-2.4273,-2.4297,-2.4312,-2.4311,-2.4326,-2.4345,-2.4363,-2.4387,-2.4406,-2.4445,-2.4451,-2.4472,-2.4468,-2.4496,-2.4471,-2.447,-2.4465,-2.4462,-2.4464,-2.45,-2.4501,-2.4502,-2.4502,0,-2.4275,-2.4275,-2.4297,-2.4318,-2.4336,-2.4353,-2.4369,-2.4381,-2.4382,-2.44,-2.4424,-2.4439,-2.4468,-2.4491,-2.4512,-2.4519,-2.451,-2.4511,-2.4517,-2.4516,-2.4513,-2.4512,-2.4431,-2.4508,-2.4508,-2.4507,-2.4507,-2.4507,-2.4322,-2.4342,-2.4357,-2.438,-2.4392,-2.4407,-2.4427,-2.4433,-2.4454,-2.4477,-2.4476,-2.4503,-2.4517,-2.4544,-2.4553,-2.4574,-2.4564,-2.4574,-2.4576,-2.4578,-2.4579,-2.4512,-2.4578,-2.4578,-2.4578,-2.4578,-2.4578,0,-2.4385,-2.4394,-2.4416,-2.4439,-2.4457,-2.4448,-2.4465,-2.4481,-2.4505,-2.4519,-2.4537,-2.4565,-2.4588,-2.4596,-2.4617,-2.4632,-2.4628,-2.4637,-2.4635,-2.4636,-2.4588,-2.4579,-2.464,-2.464,-2.464,-2.464,-2.4639,-2.4639,-2.4421,-2.4454,-2.4456,-2.4495,-2.4504,-2.453,-2.454,-2.4554,-2.4565,-2.4596,-2.4614,-2.462,-2.4631,-2.4653,-2.4673,-2.4675,-2.4682,-2.4692,-2.4692,-2.4646,-2.464,-2.4634,-2.4625,-2.4694,-2.4694,-2.4738,-2.4738,-2.4739]},{"header":{"parameterUnit":"m.s-1","parameterCategory":1,"la1":30.2991,"la2":30.254,"lo1":-89.0895,"lo2":-89.0444,"dy":0.0017,"dx":0.0017,"nx":28,"ny":28,"refTime":"2023-09-04T21:00:00:Z","depth":0,"parameterNumber":3,"parameterNumberName":"V-component_of_WINDS"},"data":[0,0,0,0,0,0,0,0,0,0,0,0,0,0,0,0,0,0,0,0,0,0,0,0,0,0,0,0,0,0,0,0,0,0,0,0,0,0,0,0,0,0,0,0,0,0,0,0,0,0,0,0,0,0,0,0,0,0,2.2444,2.2443,0,2.2375,2.2374,2.2373,2.2298,2.2297,2.2296,2.2295,2.2219,2.2218,2.2217,0,0,0,0,0,0,0,0,0,0,0,0,0,2.2507,2.2506,2.2444,2.2443,2.2442,2.2375,2.2374,2.2373,2.2299,2.2297,2.2296,2.2295,2.2219,2.2218,2.2217,0,0,0,0,0,0,0,0,0,0,0,0,0,2.2463,2.2506,2.2444,2.2397,2.2392,2.2375,2.2374,2.2373,2.2299,2.2297,2.2296,2.2294,2.222,2.2218,2.2217,2.2239,0,0,2.2212,2.2211,0,0,0,0,0,0,0,0,2.2465,2.246,2.2405,2.24,2.2395,2.2344,2.2368,2.2328,2.2299,2.2334,2.2295,2.2293,2.2261,2.2256,2.2247,2.2235,2.2232,2.2212,2.2211,2.221,2.221,0,0,0,0,0,0,0,2.2468,2.2463,2.2416,2.2404,2.2398,2.2378,2.237,2.236,2.2307,2.2331,2.2325,2.2319,2.2258,2.2248,2.2244,2.2231,2.2212,2.221,2.2209,2.2209,2.2233,2.2235,0,0,0,0,0,0,2.2479,2.2466,2.2419,2.2414,2.2427,2.2378,2.2369,2.2362,2.2307,2.2298,2.232,2.2315,2.2252,2.2246,2.2241,2.2263,2.221,2.2209,2.2208,2.2232,2.2234,2.2236,0,0,0,0,0,0,2.2481,2.2476,2.2421,2.2439,2.243,2.2379,2.2371,2.2361,2.2351,2.2299,2.2289,2.232,2.225,2.2244,2.224,2.2259,2.2208,2.2207,2.223,2.2232,2.2235,2.2306,0,0,0,0,0,0,2.2483,2.2477,2.2486,2.244,2.243,2.2423,2.2372,2.2361,2.2349,2.2343,2.2296,2.2287,2.2249,2.2243,2.2239,2.2256,2.2205,2.2228,2.2231,2.2234,2.2302,2.2311,2.2318,0,0,0,0,0,2.2485,2.2507,2.2486,2.2481,2.244,2.2424,2.2419,2.2376,2.2351,2.2359,2.2326,2.2288,2.2259,2.2243,2.2238,2.2255,2.2227,2.223,2.2234,2.2298,2.2309,2.2318,0,0,0,0,0,0,2.2555,2.25,2.2476,2.2485,2.246,2.2412,2.242,2.2389,2.2369,2.2363,2.2309,2.2299,2.2302,2.2278,2.2262,2.2273,2.2237,2.224,2.2288,2.2298,2.2306,2.231,2.2204,0,0,0,0,0,2.2571,2.2565,2.2517,2.2529,2.2518,2.2472,2.2463,2.2433,2.2404,2.2393,2.2359,2.2331,2.2315,2.2306,2.2288,2.2299,2.2287,2.2308,2.2317,2.2324,2.2325,2.2328,2.2336,2.2247,2.2247,2.2247,0,0,2.2604,2.2574,2.2573,2.2542,2.2519,2.2512,2.2463,2.2457,2.2451,2.2391,2.2386,2.2361,2.2326,2.233,2.233,2.231,2.2348,2.2328,2.2334,2.2332,2.2333,2.2341,2.2349,2.225,2.2249,2.2249,0,0,2.2661,2.2639,2.2645,2.2624,2.2591,2.2561,2.2563,2.252,2.2501,2.2496,2.2451,2.2442,2.2416,2.2393,2.2378,2.2429,2.2393,2.2424,2.2466,2.2469,2.2476,2.2482,2.2498,2.2505,2.2427,2.2427,2.2427,0,2.2705,2.2694,2.2652,2.265,2.2637,2.2585,2.2591,2.2572,2.2534,2.2526,2.2506,2.2473,2.2446,2.2443,2.2455,2.2446,2.2444,2.2428,2.2479,2.2485,2.2489,2.2504,2.251,2.2431,2.2431,2.243,2.243,0,2.275,2.2743,2.2753,2.272,2.2708,2.271,2.2666,2.266,2.2631,2.2603,2.2597,2.2564,2.2539,2.2536,2.2507,2.2529,2.2518,2.249,2.2451,2.2503,2.2515,2.252,2.2437,2.2435,2.2434,2.2433,0,0,2.2845,2.2791,2.2794,2.2779,2.274,2.2733,2.2732,2.271,2.2704,2.2681,2.2677,2.2658,2.2632,2.2615,2.2583,2.2587,2.2626,2.2557,2.2555,2.2569,2.2646,2.2666,2.2673,2.2604,2.2605,2.2606,2.2648,0,2.2892,2.2889,2.2852,2.2858,2.285,2.2803,2.2802,2.2777,2.2751,2.2739,2.2709,2.2696,2.2663,2.2653,2.2654,2.2621,2.2641,2.2618,2.2597,2.2597,2.2605,2.268,2.2701,2.2742,2.2653,2.2654,2.2655,0,2.2946,2.2928,2.2935,2.2896,2.2891,2.2891,2.2868,2.2858,2.2829,2.281,2.2793,2.2758,2.2752,2.272,2.2711,2.2696,2.2686,2.2669,2.2669,2.2663,2.2627,2.2673,2.2755,2.276,2.2662,2.2662,2.2661,0,2.3012,2.2989,2.299,2.2979,2.2934,2.2935,2.2916,2.2886,2.2875,2.2854,2.2846,2.2825,2.2812,2.2796,2.2755,2.2736,2.275,2.2714,2.2732,2.2733,2.2734,2.2734,2.2812,2.2733,2.2733,2.2732,2.2732,0,2.3067,2.3072,2.3019,2.3019,2.3023,2.2981,2.2985,2.2962,2.2936,2.2929,2.2887,2.2881,2.283,2.2818,2.2787,2.2783,2.2778,2.2761,2.2751,2.2763,2.2765,2.2753,2.2748,2.2734,2.2734,2.2733,2.2733,0,2.3139,2.3104,2.3101,2.3061,2.3051,2.3056,2.302,2.3017,2.299,2.2982,2.2978,2.2934,2.2918,2.2877,2.285,2.2829,2.2833,2.2818,2.2843,2.2837,2.2855,2.2853,2.2926,2.2933,2.2852,2.2853,2.2854,0,2.3175,2.3178,2.3139,2.3132,2.3116,2.3106,2.3096,2.3054,2.3044,2.3012,2.3013,2.2995,2.2977,2.2954,2.2918,2.2897,2.288,2.2907,2.2876,2.2887,2.2877,2.2876,2.2875,2.2912,2.2914,2.2915,2.2915,0,2.3242,2.3225,2.3212,2.3193,2.3182,2.3165,2.3145,2.3142,2.3095,2.3086,2.3071,2.3058,2.3031,2.3012,2.2986,2.2965,2.2931,2.2926,2.2928,2.2938,2.2951,2.2942,2.2858,2.2924,2.2923,2.2922,2.2922,2.2921,2.3295,2.3295,2.3268,2.3255,2.3236,2.3219,2.3215,2.3188,2.3175,2.3152,2.3128,2.3115,2.3085,2.3047,2.3028,2.3016,2.2999,2.3003,2.3003,2.3004,2.3008,2.2957,2.3011,2.3011,2.3011,2.3011,2.301,0,2.3357,2.3338,2.3327,2.3301,2.3291,2.3265,2.3242,2.3234,2.3224,2.32,2.3185,2.3167,2.3149,2.3113,2.3091,2.3088,2.3072,2.3083,2.3081,2.3077,2.3026,2.3025,2.3097,2.3097,2.3097,2.3097,2.3097,2.3097,2.3388,2.3387,2.3367,2.3357,2.3337,2.3325,2.3314,2.3297,2.3279,2.3261,2.3247,2.3225,2.3196,2.3172,2.3154,2.3143,2.3136,2.3152,2.3136,2.3089,2.308,2.3073,2.3071,2.3151,2.3151,2.3187,2.3188,2.3188]}]]